{"data":{"norad_id":45080,"intl_designator":"2020-006AN","name":"STARLINK-1153","alt_names":[],"object_type":"PAYLOAD","status":"ACTIVE","operator":null,"country":"US","launch_date":"2020-01-29","launch_site_code":"AFETR","launch_vehicle":null,"mission":null,"orbit_class":"UNKNOWN","rcs_meters":null,"size_class":null,"mass_kg":null,"dimensions":null,"purposes":["comms"],"wikipedia_slug":null,"has_3d_model":false,"image_url":null,"decayed_at":null,"tle_current":{"epoch":"2026-09-20T03:55:32.822976Z","epoch_age_seconds":43559,"freshness":"FRESH","line1":"1 45080U 20006AN  26263.16357434  .00044043  00000+0  86541-3 0  9998","line2":"2 45080  53.1535  63.5243 0002976 239.4725 120.5990 15.46882417366805","mean_motion":15.46882417,"eccentricity":0.0002976,"inclination_deg":53.1535,"raan_deg":63.5243,"arg_perigee_deg":239.4725,"mean_anomaly_deg":120.599,"bstar":0.00086541,"rev_number":36680,"period_min":93.090462738125,"perigee_km":423.82770487004,"apogee_km":427.87743946339,"semimajor_km":6803.9895721667,"source":"CELESTRAK","updated_at":"2026-09-20T09:00:38.224579Z"}}}